EW9056 Weather Reports


time (UTC)temp
F
wind
direction
speed
knots
gust
knots
rain 1hr
in
rain 24hr
in
rain mn
in
humidity
%
barometer
mb
20260503013035 64 25 0.0 0.0 0.00 0.00 0.00 37 1016.0
20260503011531 63 36 0.0 0.0 0.00 0.00 0.00 36 1016.1
20260503010030 63 35 0.0 0.0 0.00 0.00 0.00 37 1016.2
20260503004529 63 23 0.0 0.0 0.00 0.00 0.00 37 1016.3
20260503003020 64 23 0.0 0.0 0.00 0.00 0.00 37 1016.6
20260503001519 64 304 0.0 0.0 0.00 0.00 0.00 37 1016.7
20260503000017 64 4 0.0 0.0 0.00 0.00 0.00 36 1016.6
20260502234515 65 41 0.0 0.0 0.00 0.00 0.00 35 1016.8
20260502233012 65 287 0.0 1.7 0.00 0.00 0.00 34 1017.0
20260502231515 66 329 0.0 0.0 0.00 0.00 0.00 34 1017.3
20260502230012 67 331 0.0 1.7 0.00 0.00 0.00 34 1017.3
20260502224506 66 282 0.0 2.6 0.00 0.00 0.00 35 1017.6
20260502223002 65 294 0.0 0.9 0.00 0.00 0.00 35 1017.7
20260502221558 67 17 0.0 0.9 0.00 0.00 0.00 34 1017.8
20260502220054 67 44 0.0 4.3 0.00 0.00 0.00 34 1018.0
20260502214550 66 320 0.0 2.6 0.00 0.00 0.00 36 1018.2
20260502213048 64 146 0.0 1.7 0.00 0.00 0.00 37 1018.5
20260502211551 66 40 0.0 0.0 0.00 0.00 0.00 37 1018.5
20260502210041 64 328 0.0 4.3 0.00 0.00 0.00 38 1018.6
20260502204533 65 300 0.0 4.3 0.00 0.00 0.00 37 1018.6
20260502203102 65 347 0.0 8.7 0.00 0.00 0.00 37 1019.0
20260502201557 64 39 0.0 4.3 0.00 0.00 0.00 38 1019.0
20260502200045 63 33 0.0 0.9 0.00 0.00 0.00 40 1019.2
20260502194544 62 322 0.0 6.1 0.00 0.00 0.00 41 1019.1
20260502193035 61 50 0.0 7.8 0.00 0.00 0.00 43 1019.5
20260502191534 61 40 0.0 7.8 0.00 0.00 0.00 42 1019.6
20260502190037 61 29 0.0 8.7 0.00 0.00 0.00 44 1019.7
20260502184600 61 4 0.0 7.0 0.00 0.00 0.00 42 1019.8
20260502183105 61 15 0.0 8.7 0.00 0.00 0.00 42 1019.8
20260502181651 60 37 0.0 2.6 0.00 0.00 0.00 44 1019.9
20260502170137 61 38 2.6 10.4 0.00 0.00 0.00 41 1019.9
20260502163037 61 36 0.9 7.8 0.00 0.00 0.00 42 1019.8
20260502161519 61 25 6.1 10.4 0.00 0.00 0.00 43 1019.8
20260502151602 58 35 1.7 10.4 0.00 0.00 0.00 44 1019.5
20260502123015 42 31 0.0 1.7 0.00 0.00 0.00 67 1018.7
20260502121537 42 335 0.0 2.6 0.00 0.00 0.00 66 1018.6
20260502114529 43 13 0.0 4.3 0.00 0.00 0.00 64 1018.3
20260502113027 44 25 0.0 3.5 0.00 0.00 0.00 62 1018.2
20260502111520 44 338 0.0 4.3 0.00 0.00 0.00 60 1017.8
20260502110017 44 19 0.0 3.5 0.00 0.00 0.00 60 1017.6
20260502104509 45 360 0.0 0.9 0.00 0.00 0.00 56 1017.3
20260502103005 48 328 0.0 5.2 0.00 0.00 0.00 51 1017.0
20260502101508 48 44 0.0 7.8 0.00 0.00 0.00 51 1016.6
20260502100104 49 43 1.7 6.1 0.00 0.00 0.00 49 1016.6
20260502090104 49 4 0.0 3.5 0.00 0.00 0.00 45 1016.3
20260502071516 46 319 0.0 0.0 0.00 0.00 0.00 42 1015.6
20260502070012 49 330 0.0 0.0 0.00 0.00 0.00 40 1015.6
20260502064607 49 342 0.0 0.0 0.00 0.00 0.00 40 1015.5
20260502063004 48 340 0.0 0.0 0.00 0.00 0.00 41 1015.4
20260502061608 50 20 0.0 0.0 0.00 0.00 0.00 39 1015.3
20260502060053 50 18 0.0 0.0 0.00 0.00 0.00 38 1015.3
20260502054556 53 18 0.0 0.0 0.00 0.00 0.00 34 1015.3
20260502053049 55 340 0.0 0.0 0.00 0.00 0.00 33 1015.4
20260502051603 55 332 0.0 0.0 0.00 0.00 0.00 33 1015.4
20260502050042 56 325 0.0 0.0 0.00 0.00 0.00 32 1015.3
20260502044545 54 303 0.0 0.9 0.00 0.00 0.00 35 1015.2
20260502043038 50 311 0.0 0.0 0.00 0.00 0.00 36 1015.2
20260502041537 52 297 0.0 0.0 0.00 0.00 0.00 32 1015.3
20260502040040 54 297 0.0 0.0 0.00 0.00 0.00 30 1015.4
20260502034531 56 297 0.0 0.0 0.00 0.00 0.00 28 1015.4
20260502033030 58 296 0.0 0.0 0.00 0.00 0.00 27 1015.3
20260502031528 58 300 0.0 4.3 0.00 0.00 0.00 26 1015.0
20260502030024 57 340 0.0 0.0 0.00 0.00 0.00 27 1014.8
20260502024522 62 281 0.0 0.0 0.00 0.00 0.00 24 1014.8
20260502023021 65 281 0.0 0.0 0.00 0.00 0.00 23 1014.8
20260502021518 66 220 0.0 1.7 0.00 0.00 0.00 21 1014.7
20260502020016 68 28 0.0 0.0 0.00 0.00 0.00 21 1014.8
20260502014512 70 28 0.0 0.0 0.00 0.00 0.00 20 1014.7